Campo, CA

12:48 AM PDT on August 28, 2016 (GMT -0700)
Campo

Weather History for KCZZ - October, 2013

Change the Weather History Date:

Saturday, October 19, 2013

  Actual Average Record
Temperature  
Mean Temperature 60 °F 60 °F  
Max Temperature 84 °F 78 °F 96 °F (2003)
Min Temperature 36 °F 41 °F 29 °F (1969)
Degree Days  
Heating Degree Days 5 6  
Month to date heating degree days 141 78  
Since 1 July heating degree days 184 128  
Cooling Degree Days 0 1  
Month to date cooling degree days 2 26  
Year to date cooling degree days 909 837  
Growing Degree Days 10 (Base 50)    
Moisture  
Dew Point 25 °F    
Average Humidity 31    
Maximum Humidity 54    
Minimum Humidity 7    
Precipitation  
Precipitation 0.00 in 0.03 in 2.14 in (2010)
Month to date precipitation 0.76 0.45  
Year to date precipitation 7.48 11.96  
Since 1 July precipitation 2.70  
Snow  
Snow 0.00 in - - ()
Month to date snowfall 0.0  
Year to date snowfall 0.0  
Snow Depth 0.00 in    
Sea Level Pressure  
Sea Level Pressure 29.96 in    
Wind  
Wind Speed 7 mph (NE)    
Max Wind Speed 21 mph    
Max Gust Speed 24 mph    
T = Trace of Precipitation, MM = Missing Value Source: NWS Daily Summary

Daily Weather History Graph

Daily Weather History Graph

Search for Another Location

Airport or City:

Trip Planner

Search our weather history database for the weather conditions in past years. The results will help you decide how hot, cold, wet, or windy it might be!

Date:

Astronomy

Oct. 19, 2013 Rise Set
Actual Time 6:53 AM PDT 6:07 PM PDT
Civil Twilight 6:28 AM PDT 6:32 PM PDT
Nautical Twilight 5:59 AM PDT 7:01 PM PDT
Astronomical Twilight 5:30 AM PDT 7:30 PM PDT
Moon 6:43 PM PDT (10/19) 7:31 AM PDT (10/19)
Length of Visible Light 12h 04m
Length of Day
11h 14m
Full, 99% of the Moon is Illuminated
Oct 19
Full
Oct 26
Last Quarter
Nov 3
New
Nov 9
First Quarter
Nov 17
Full

Hourly Weather History & Observations

Time (PDT) Temp. Windchill Dew Point Humidity Pressure Visibility Wind Dir Wind Speed Gust Speed Precip Events Conditions
12:52 AM 44.1 °F 41.5 °F 24.1 °F 45% 29.97 in - NE 4.6 mph - N/A   Unknown
1:52 AM 43.0 °F 41.3 °F 25.0 °F 49% 29.97 in - NE 3.5 mph - N/A   Unknown
2:52 AM 44.1 °F 40.1 °F 24.1 °F 45% 29.96 in - NE 6.9 mph - N/A   Unknown
3:52 AM 46.0 °F 43.9 °F 24.1 °F 42% 29.96 in - NNE 4.6 mph - N/A   Unknown
4:52 AM 39.0 °F 33.4 °F 25.0 °F 57% 29.97 in - ENE 8.1 mph - N/A   Unknown
5:52 AM 42.1 °F 40.2 °F 25.0 °F 51% 29.98 in - ENE 3.5 mph - N/A   Unknown
6:52 AM 41.0 °F 37.1 °F 25.0 °F 53% 29.99 in - NE 5.8 mph - N/A   Unknown
7:52 AM 45.0 °F - 28.0 °F 52% 30.01 in - Calm Calm - N/A   Unknown
8:52 AM 61.0 °F - 34.0 °F 36% 30.00 in - Calm Calm - N/A   Unknown
9:52 AM 75.9 °F - 19.0 °F 12% 29.99 in - East 12.7 mph - N/A   Unknown
10:52 AM 78.1 °F - 19.9 °F 11% 29.99 in - East 10.4 mph - N/A   Unknown
11:52 AM 80.1 °F - 18.0 °F 10% 29.98 in - East 15.0 mph - N/A   Unknown
12:52 PM 81.0 °F - 15.1 °F 8% 29.96 in - East 10.4 mph 19.6 mph N/A   Unknown
1:52 PM 82.0 °F - 12.9 °F 7% 29.93 in - East 10.4 mph - N/A   Unknown
2:52 PM 82.0 °F - 14.0 °F 8% 29.92 in - East 8.1 mph - N/A   Unknown
3:52 PM 82.0 °F - 14.0 °F 8% 29.91 in - East 8.1 mph - N/A   Unknown
4:52 PM 80.1 °F - 30.9 °F 17% 29.92 in - WNW 9.2 mph - N/A   Unknown
5:52 PM 73.9 °F - 33.1 °F 22% 29.94 in - WNW 6.9 mph - N/A   Unknown
6:52 PM 70.0 °F - 30.0 °F 23% 29.96 in - WNW 3.5 mph - N/A   Unknown
7:52 PM 54.0 °F - 32.0 °F 43% 29.99 in - ENE 5.8 mph - N/A   Unknown
8:52 PM 52.0 °F - 32.0 °F 47% 29.98 in - NE 5.8 mph - N/A   Unknown
9:52 PM 50.0 °F - 30.9 °F 48% 29.96 in - ENE 8.1 mph - N/A   Unknown
10:52 PM 50.0 °F - 30.9 °F 48% 29.96 in - Variable 3.5 mph - N/A   Unknown
11:52 PM 46.0 °F 42.5 °F 30.0 °F 54% 29.96 in - NE 6.9 mph - N/A   Unknown